CW3410 Weather Reports


time (UTC)temp
C
wind
direction
speed
KPH
gust
KPH
rain 1hr
cm
rain 24hr
cm
rain mn
cm
humidity
%
barometer
mb
20260504205201 30 0 0.0 0.0 0.00 0.00 0.00 15 1001.0
20260504204650 30 0 0.0 0.0 0.00 0.00 0.00 16 1001.1
20260504204359 30 0 0.0 0.0 0.00 0.00 0.00 17 1001.1
20260504203625 30 0 0.0 0.0 0.00 0.00 0.00 15 1001.4
20260504203114 30 0 0.0 0.0 0.00 0.00 0.00 16 1001.4
20260504202602 30 0 0.0 0.0 0.00 0.00 0.00 17 1001.4
20260504202050 30 0 0.0 0.0 0.00 0.00 0.00 15 1001.4
20260504201537 30 0 0.0 0.0 0.00 0.00 0.00 15 1001.5
20260504201029 30 0 0.0 0.0 0.00 0.00 0.00 16 1001.5
20260504200731 29 0 0.0 0.0 0.00 0.00 0.00 18 1001.6
20260504200617 30 0 0.0 0.0 0.00 0.00 0.00 17 1001.6
20260504195528 29 0 0.0 0.0 0.00 0.00 0.00 16 1001.6
20260504195252 29 0 0.0 0.0 0.00 0.00 0.00 17 1001.6
20260504194528 29 0 0.0 0.0 0.00 0.00 0.00 17 1001.6
20260504194252 29 0 0.0 0.0 0.00 0.00 0.00 16 1001.6
20260504193527 29 0 0.0 0.0 0.00 0.00 0.00 17 1001.6
20260504193029 29 0 0.0 0.0 0.00 0.00 0.00 18 1001.8
20260504192524 29 0 0.0 0.0 0.00 0.00 0.00 15 1001.8
20260504192024 29 0 0.0 0.0 0.00 0.00 0.00 15 1001.8
20260504191523 29 0 0.0 0.0 0.00 0.00 0.00 17 1001.8
20260504191023 29 0 0.0 0.0 0.00 0.00 0.00 16 1001.9
20260504190741 28 0 0.0 0.0 0.00 0.00 0.00 17 1001.8
20260504190026 28 0 0.0 0.0 0.00 0.00 0.00 16 1001.9
20260504185527 28 0 0.0 0.0 0.00 0.00 0.00 16 1001.9
20260504185027 28 0 0.0 0.0 0.00 0.00 0.00 18 1001.9
20260504184751 28 0 0.0 0.0 0.00 0.00 0.00 17 1001.9
20260504184021 28 0 0.0 0.0 0.00 0.00 0.00 19 1001.9
20260504183508 28 0 0.0 0.0 0.00 0.00 0.00 18 1001.9
20260504182956 28 0 0.0 0.0 0.00 0.00 0.00 18 1002.0
20260504182444 28 0 0.0 0.0 0.00 0.00 0.00 19 1002.1
20260504181932 28 0 0.0 0.0 0.00 0.00 0.00 19 1002.1
20260504181417 28 0 0.0 0.0 0.00 0.00 0.00 19 1002.1
20260504180907 28 0 0.0 0.0 0.00 0.00 0.00 18 1002.2
20260504180408 28 0 0.0 0.0 0.00 0.00 0.00 18 1002.3
20260504175907 28 0 0.0 0.0 0.00 0.00 0.00 17 1002.3
20260504175407 27 0 0.0 0.0 0.00 0.00 0.00 19 1002.3
20260504174908 27 0 0.0 0.0 0.00 0.00 0.00 18 1002.5
20260504174630 27 0 0.0 0.0 0.00 0.00 0.00 20 1002.5
20260504173908 27 0 0.0 0.0 0.00 0.00 0.00 18 1002.5
20260504173626 27 0 0.0 0.0 0.00 0.00 0.00 18 1002.6
20260504172908 27 0 0.0 0.0 0.00 0.00 0.00 20 1002.6
20260504172402 27 0 0.0 0.0 0.00 0.00 0.00 20 1002.6
20260504171849 27 0 0.0 0.0 0.00 0.00 0.00 20 1002.6
20260504171337 27 0 0.0 0.0 0.00 0.00 0.00 20 1002.7
20260504170825 27 0 0.0 0.0 0.00 0.00 0.00 22 1002.8
20260504170314 26 0 0.0 0.0 0.00 0.00 0.00 23 1002.8
20260504160229 24 0 0.0 0.0 0.00 0.00 0.00 28 1003.2
20260504151139 21 0 0.0 0.0 0.00 0.00 0.00 38 1003.5
20260504150638 21 0 0.0 0.0 0.00 0.00 0.00 37 1003.6
20260504150138 21 0 0.0 0.0 0.00 0.00 0.00 40 1003.5
20260504141020 17 0 0.0 0.0 0.00 0.00 0.00 48 1003.7
20260504140519 16 0 0.0 0.0 0.00 0.00 0.00 51 1003.6
20260504140240 16 0 0.0 0.0 0.00 0.00 0.00 53 1003.6
20260504130401 9 0 0.0 0.0 0.00 0.00 0.00 71 1003.1
20260504130112 9 0 0.0 0.0 0.00 0.00 0.00 72 1003.1
20260504110439 7 0 0.0 0.0 0.00 0.00 0.00 71 1002.3
20260504100250 8 0 0.0 0.0 0.00 0.00 0.00 72 1002.2
20260504081927 11 0 0.0 0.0 0.00 0.00 0.00 61 1003.5
20260504081429 11 0 0.0 0.0 0.00 0.00 0.00 60 1003.5
20260504080921 12 0 0.0 0.0 0.00 0.00 0.00 58 1003.4
20260504080409 12 0 0.0 0.0 0.00 0.00 0.00 57 1003.4
20260504070332 13 0 0.0 0.0 0.00 0.00 0.00 51 1004.7
20260504060244 15 0 0.0 0.0 0.00 0.00 0.00 46 1005.7
20260504050736 15 0 0.0 0.0 0.00 0.00 0.00 44 1006.2
20260504050238 15 0 0.0 0.0 0.00 0.00 0.00 44 1006.2
20260504045740 15 0 0.0 0.0 0.00 0.00 0.00 43 1006.3
20260504045455 15 0 0.0 0.0 0.00 0.00 0.00 43 1006.3
20260504045210 15 0 0.0 0.0 0.00 0.00 0.00 43 1006.4
20260504044221 15 0 0.0 0.0 0.00 0.00 0.00 43 1006.4
20260504043708 15 0 0.0 0.0 0.00 0.00 0.00 43 1006.4
20260504043209 15 0 0.0 0.0 0.00 0.00 0.00 43 1006.5
20260504042702 16 0 0.0 0.0 0.00 0.00 0.00 43 1006.6
20260504042156 16 0 0.0 0.0 0.00 0.00 0.00 42 1006.5
20260504041651 16 0 0.0 0.0 0.00 0.00 0.00 42 1006.7
20260504041138 16 0 0.0 0.0 0.00 0.00 0.00 42 1006.8
20260504040639 16 0 0.0 0.0 0.00 0.00 0.00 41 1006.9
20260504040355 16 0 0.0 0.0 0.00 0.00 0.00 40 1006.8
20260504035627 17 0 0.0 0.0 0.00 0.00 0.00 39 1006.9
20260504035530 17 0 0.0 0.0 0.00 0.00 0.00 38 1007.0
20260504035203 17 0 0.0 0.0 0.00 0.00 0.00 38 1007.0
20260504034109 17 0 0.0 0.0 0.00 0.00 0.00 37 1007.0
20260504033607 18 0 0.0 0.0 0.00 0.00 0.00 38 1007.0
20260504033056 18 0 0.0 0.0 0.00 0.00 0.00 37 1007.0
20260504032551 18 0 0.0 0.0 0.00 0.00 0.00 37 1006.8
20260504032038 18 0 0.0 0.0 0.00 0.00 0.00 36 1006.7
20260504031539 18 0 0.0 0.0 0.00 0.00 0.00 36 1006.8
20260504031033 18 0 0.0 0.0 0.00 0.00 0.00 36 1006.8
20260504030527 18 0 0.0 0.0 0.00 0.00 0.00 36 1006.6
20260504030021 18 0 0.0 0.0 0.00 0.00 0.00 35 1006.5
20260504025508 18 0 0.0 0.0 0.00 0.00 0.00 35 1006.6
20260504025009 18 0 0.0 0.0 0.00 0.00 0.00 35 1006.7
20260504024502 18 0 0.0 0.0 0.00 0.00 0.00 35 1006.7
20260504024441 18 0 0.0 0.0 0.00 0.00 0.00 35 1006.7
20260504023451 18 0 0.0 0.0 0.00 0.00 0.00 34 1006.5
20260504022938 19 0 0.0 0.0 0.00 0.00 0.00 34 1006.5
20260504022439 19 0 0.0 0.0 0.00 0.00 0.00 34 1006.6
20260504022154 19 0 0.0 0.0 0.00 0.00 0.00 34 1006.7
20260504021427 19 0 0.0 0.0 0.00 0.00 0.00 34 1006.6
20260504020629 20 0 0.0 0.0 0.00 0.00 0.00 32 1006.6
20260504015910 20 0 0.0 0.0 0.00 0.00 0.00 32 1006.6
20260504015620 20 0 0.0 0.0 0.00 0.00 0.00 32 1006.7
20260504014858 20 0 0.0 0.0 0.00 0.00 0.00 31 1006.7
20260504014350 21 0 0.0 0.0 0.00 0.00 0.00 31 1006.7
20260504013838 21 0 0.0 0.0 0.00 0.00 0.00 31 1006.7
20260504013339 21 0 0.0 0.0 0.00 0.00 0.00 29 1006.7
20260504012834 21 0 0.0 0.0 0.00 0.00 0.00 29 1006.7
20260504012327 22 0 0.0 0.0 0.00 0.00 0.00 28 1006.6
20260504011822 22 0 0.0 0.0 0.00 0.00 0.00 28 1006.6
20260504011308 22 0 0.0 0.0 0.00 0.00 0.00 28 1006.5
20260504010809 23 0 0.0 0.0 0.00 0.00 0.00 27 1006.6
20260504010303 23 0 0.0 0.0 0.00 0.00 0.00 27 1006.6
20260504005758 23 0 0.0 0.0 0.00 0.00 0.00 26 1006.5
20260504005251 23 0 0.0 0.0 0.00 0.00 0.00 25 1006.5
20260504004739 23 0 0.0 0.0 0.00 0.00 0.00 25 1006.6
20260504004238 23 0 0.0 0.0 0.00 0.00 0.00 25 1006.6
20260504003734 23 0 0.0 0.0 0.00 0.00 0.00 25 1006.7
20260504003227 23 0 0.0 0.0 0.00 0.00 0.00 25 1006.7
20260504002722 24 0 0.0 0.0 0.00 0.00 0.00 25 1006.7
20260504002207 24 0 0.0 0.0 0.00 0.00 0.00 24 1006.7
20260504001710 24 0 0.0 0.0 0.00 0.00 0.00 24 1006.8
20260504001203 24 0 0.0 0.0 0.00 0.00 0.00 24 1006.7
20260504000922 25 0 0.0 0.0 0.00 0.00 0.00 24 1006.8
20260504000416 25 0 0.0 0.0 0.00 0.00 0.00 24 1006.9
20260503235641 25 0 0.0 0.0 0.00 0.00 0.00 23 1007.0
20260503235138 25 0 0.0 0.0 0.00 0.00 0.00 23 1007.0
20260503234634 25 0 0.0 0.0 0.00 0.00 0.00 24 1007.0
20260503234127 25 0 0.0 0.0 0.00 0.00 0.00 23 1007.0
20260503233621 25 0 0.0 0.0 0.00 0.00 0.00 23 1007.0
20260503233329 25 0 0.0 0.0 0.00 0.00 0.00 23 1007.1
20260503232610 25 0 0.0 0.0 0.00 0.00 0.00 23 1007.0
20260503232103 25 0 0.0 0.0 0.00 0.00 0.00 22 1007.0
20260503231558 26 0 0.0 0.0 0.00 0.00 0.00 22 1007.0
20260503231533 26 0 0.0 0.0 0.00 0.00 0.00 21 1007.1
20260503230539 26 0 0.0 0.0 0.00 0.00 0.00 21 1007.1
20260503230039 27 0 0.0 0.0 0.00 0.00 0.00 20 1007.3
20260503225534 27 0 0.0 0.0 0.00 0.00 0.00 19 1007.3
20260503225027 27 0 0.0 0.0 0.00 0.00 0.00 20 1007.3
20260503224522 27 0 0.0 0.0 0.00 0.00 0.00 19 1007.3
20260503224007 27 0 0.0 0.0 0.00 0.00 0.00 20 1007.3
20260503223952 27 0 0.0 0.0 0.00 0.00 0.00 19 1007.5
20260503223002 27 0 0.0 0.0 0.00 0.00 0.00 19 1007.6
20260503222458 27 0 0.0 0.0 0.00 0.00 0.00 19 1007.6
20260503221951 27 0 0.0 0.0 0.00 0.00 0.00 19 1007.7
20260503221439 27 0 0.0 0.0 0.00 0.00 0.00 20 1007.8
20260503220939 27 0 0.0 0.0 0.00 0.00 0.00 19 1007.8
20260503220434 27 0 0.0 0.0 0.00 0.00 0.00 18 1007.9
20260503215926 27 0 0.0 0.0 0.00 0.00 0.00 19 1008.0
20260503215421 27 0 0.0 0.0 0.00 0.00 0.00 19 1008.0
20260503215132 27 0 0.0 0.0 0.00 0.00 0.00 19 1008.1
20260503214409 27 0 0.0 0.0 0.00 0.00 0.00 20 1008.2
20260503214123 27 0 0.0 0.0 0.00 0.00 0.00 19 1008.2
20260503213657 27 0 0.0 0.0 0.00 0.00 0.00 19 1008.4
20260503213555 27 0 0.0 0.0 0.00 0.00 0.00 18 1008.5
20260503212338 27 0 0.0 0.0 0.00 0.00 0.00 20 1008.6
20260503211838 27 0 0.0 0.0 0.00 0.00 0.00 19 1008.6
20260503211333 27 0 0.0 0.0 0.00 0.00 0.00 18 1008.6
20260503210827 27 0 0.0 0.0 0.00 0.00 0.00 19 1008.7
20260503210320 27 0 0.0 0.0 0.00 0.00 0.00 19 1008.8
20260503210028 28 0 0.0 0.0 0.00 0.00 0.00 19 1008.8
20260503205309 27 0 0.0 0.0 0.00 0.00 0.00 19 1009.0